Flag for Germany Weather past 2 weeks in Hameln, Lower Saxony, Germany

Now
97 °F

Passing clouds.


Feels Like: 100 °F
Forecast: 67 / 90 °F
Wind: 5 mph from South

Location: Bueckeburg

Current Time: Jul 4, 2015 at 4:30:41 PM

Latest Report: Jul 4, 2015 at 3:20 PM


Visibility: N/A

Pressure: 30.04 "Hg

Humidity: 37%

Dew point: 66 °F

Location of HamelnLocation

Historic Weather in Hameln — Graph

°F

Hameln temperature yesterday

Maximum temperature yesterday: 86 °F (at 4:20 PM)
Minimum temperature yesterday: 68 °F (at 7:03 AM)
Average temperature yesterday: 77 °F

Past Weeks' High & Low Weather Summary

 TemperatureHumidityPressure
High97 °F (Jul 4, 3:20 PM)100% (Jun 22, 12:20 AM)30.27 "Hg (Jun 22, 12:20 AM)
Low48 °F (Jun 22, 11:20 PM)34% (Jul 2, 5:20 PM)29.65 "Hg (Jun 22, 9:20 PM)
Average65 °F70%30.06 "Hg
* Reported Jun 19 3:20 PM — Jul 4 3:20 PM, Hameln, Weather by CustomWeather, © 2015

Note: Actual official high and low records may vary slightly from our data, if they occured in-between our weather recording intervals... More about our weather records

Advertising

Hameln weather history for previous 24 hours

 ConditionsComfort  
Time TempWeatherWind HumidityBarometerVisibility
3:20 PM
Sat, Jul 4
97 °FPassing clouds.5 mph37%30.04 "HgN/A
2:20 PM95 °FPassing clouds.7 mph41%30.04 "HgN/A
1:20 PM93 °FScattered clouds.6 mph47%30.07 "HgN/A
12:20 PM91 °FScattered clouds.6 mph49%30.07 "HgN/A
11:20 AM88 °FScattered clouds.5 mph52%30.07 "HgN/A
10:20 AM86 °FScattered clouds.8 mph52%30.09 "HgN/A
9:20 AM84 °FPartly sunny.7 mph55%30.09 "HgN/A
8:20 AM75 °FPartly sunny.2 mph78%30.09 "HgN/A
7:20 AM72 °FPassing clouds.2 mph83%30.09 "HgN/A
6:20 AM68 °FFog.1 mph94%30.09 "HgN/A
5:20 AM68 °FFog.1 mph94%30.12 "Hg6 mi
4:20 AM68 °FFog.2 mph94%30.12 "Hg6 mi
3:20 AM68 °FPassing clouds.2 mph94%30.15 "HgN/A
2:20 AM70 °FPassing clouds.No wind88%30.18 "HgN/A
1:20 AM70 °FPassing clouds.2 mph88%30.18 "HgN/A
12:20 AM72 °FPassing clouds.1 mph83%30.18 "HgN/A
11:20 PM
Fri, Jul 3
72 °FPassing clouds.2 mph88%30.21 "HgN/A
10:20 PM77 °FPassing clouds.2 mph74%30.21 "HgN/A
9:20 PM81 °FPassing clouds.3 mph62%30.18 "HgN/A
8:20 PM84 °FPassing clouds.3 mph55%30.18 "HgN/A
7:20 PM86 °FScattered clouds.6 mph52%30.21 "HgN/A
6:20 PM86 °FPassing clouds.7 mph49%30.21 "HgN/A
5:20 PM86 °FPassing clouds.6 mph52%30.21 "HgN/A
4:20 PM86 °FPassing clouds.8 mph49%30.24 "HgN/A
Weather by CustomWeather, © 2015

See weather overviewHow to use our weather pages